This is the latest recevied weather packets stored in our database for station/object KG4K-13. If no packets are shown the sender has not sent any weather packets the latest 10 day(s).
| Time | Temp. | Humidity | Pressure | Rain* | Wind** | Luminosity | Snow |
|---|---|---|---|---|---|---|---|
| 1778223916 | 11.67° C | 76% | 1012.7 hPa | 0 mm | - | 0 W/m² | - |
| 1778220317 | 11.67° C | 86% | 1012.3 hPa | 0 mm | - | 0 W/m² | - |
| 1778217916 | 11.67° C | 85% | 1012.2 hPa | 0 mm | - | 0 W/m² | - |
| 1778217316 | 11.67° C | 84% | 1012.2 hPa | 0 mm | - | 0 W/m² | - |
| 1778216736 | 11.67° C | 84% | 1012.1 hPa | 0 mm | - | 0 W/m² | - |
| 1778215515 | 11.67° C | 82% | 1011.9 hPa | 0 mm | - | 0 W/m² | - |
| 1778209517 | 11.67° C | 80% | 1011.6 hPa | 0 mm | - | 0 W/m² | - |
| 1778203536 | 12.22° C | 72% | 1011.3 hPa | 0 mm | - | 0 W/m² | - |
| 1778201116 | 12.78° C | 68% | 1010.6 hPa | 0 mm | - | 0 W/m² | - |
| 1778195718 | 16.11° C | 57% | 1009.8 hPa | 0 mm | - | 49 W/m² | - |
| 1778192116 | 17.22° C | 53% | 1009.5 hPa | 0 mm | - | 255 W/m² | - |
| 1778189736 | 16.67° C | 52% | 1009.7 hPa | 0 mm | - | 379 W/m² | - |
| 1778187917 | 16.67° C | 55% | 1009.8 hPa | 0 mm | - | 145 W/m² | - |
| 1778183718 | 17.78° C | 53% | 1009.7 hPa | 0 mm | - | 751 W/m² | - |
| 1778182515 | 17.22° C | 54% | 1010.3 hPa | 0 mm | - | 840 W/m² | - |
| 1778180116 | 16.11° C | 54% | 1010.7 hPa | 0 mm | - | 766 W/m² | - |
| 1778178917 | 16.67° C | 55% | 1010.9 hPa | 0.25 mm | - | 511 W/m² | - |
| 1778167517 | 13.33° C | 55% | 1012.6 hPa | 0 mm | - | 228 W/m² | - |
| 1778163941 | 13.33° C | 52% | 1013.1 hPa | 0 mm | - | 174 W/m² | - |
| 1778159115 | 12.78° C | 61% | 1013.4 hPa | 0 mm | - | 106 W/m² | - |
| 1778158536 | 12.78° C | 63% | 1013.4 hPa | 0 mm | - | 57 W/m² | - |
| 1778155519 | 12.78° C | 73% | 1013 hPa | 0 mm | - | 128 W/m² | - |
| 1778148321 | 12.22° C | 91% | 1012.2 hPa | 0 mm | - | 1 W/m² | - |
| 1778138741 | 13.33° C | 90% | 1010.8 hPa | 0 mm | - | 0 W/m² | - |
| 1778133325 | 14.44° C | 93% | 1010.8 hPa | 8.64 mm | - | 0 W/m² | - |
* Rain latest hour (hover to see other rain measurements)
** Current wind speed in m/s (hover to see current wind gust speed)